Port Lavaca, TX

7:10 PM CDT on May 24, 2017 (GMT -0500)
Port Lavaca

Weather History for KPKV - May, 2014

Change the Weather History Date:

Friday, May 30, 2014

  Actual Average (KVCT) Record (KVCT)
Temperature  
Mean Temperature 80 °F -  
Max Temperature 90 °F 88 °F 98 °F (2003)
Min Temperature 69 °F 70 °F 56 °F (1984)
Cooling Degree Days 14    
Growing Degree Days 30 (Base 50)    
Moisture  
Dew Point 69 °F    
Average Humidity 75    
Maximum Humidity 97    
Minimum Humidity 47    
Precipitation  
Precipitation 0.00 in - - ()
Sea Level Pressure  
Sea Level Pressure 29.83 in    
Wind  
Wind Speed 5 mph (SW)    
Max Wind Speed 12 mph    
Max Gust Speed -    
Visibility 9 miles    
Events      
Averages and records for this station are not official NWS values.
T = Trace of Precipitation, MM = Missing Value Source: NWS Daily Summary

Daily Weather History Graph

Daily Weather History Graph

Search for Another Location

Airport or City:

Trip Planner

Search our weather history database for the weather conditions in past years. The results will help you decide how hot, cold, wet, or windy it might be!

Date:

Astronomy

May. 30, 2014 Rise Set
Actual Time 6:29 AM CDT 8:19 PM CDT
Civil Twilight 6:03 AM CDT 8:45 PM CDT
Nautical Twilight 5:31 AM CDT 9:17 PM CDT
Astronomical Twilight 4:57 AM CDT 9:51 PM CDT
Moon 8:10 AM CDT (5/30) 10:02 PM CDT (5/30)
Length of Visible Light 14h 42m
Length of Day
13h 49m
Waxing Crescent, 4% of the Moon is Illuminated
May 30
Waxing Crescent
Jun 5
First Quarter
Jun 12
Full
Jun 19
Last Quarter
Jun 27
New

Hourly Weather History & Observations

Time (CDT) Temp. Heat Index Dew Point Humidity Pressure Visibility Wind Dir Wind Speed Gust Speed Precip Events Conditions
12:15 AM 72.0 °F - 68.5 °F 89% 29.84 in 10.0 mi South 3.5 mph - N/A   Clear
12:35 AM 71.8 °F - 68.5 °F 89% 29.84 in 10.0 mi SSW 4.6 mph - N/A   Clear
12:55 AM 71.8 °F - 68.9 °F 91% 29.84 in 10.0 mi SSW 4.6 mph - N/A   Clear
1:15 AM 72.0 °F - 68.5 °F 89% 29.84 in 10.0 mi South 4.6 mph - N/A   Clear
1:35 AM 71.6 °F - 68.5 °F 90% 29.84 in 10.0 mi South 3.5 mph - N/A   Clear
1:55 AM 71.4 °F - 68.5 °F 91% 29.84 in 10.0 mi South 4.6 mph - N/A   Clear
2:15 AM 71.2 °F - 68.9 °F 92% 29.84 in 10.0 mi South 4.6 mph - N/A   Clear
2:35 AM 71.6 °F - 69.3 °F 92% 29.84 in 10.0 mi South 4.6 mph - N/A   Scattered Clouds
2:55 AM 71.1 °F - 69.1 °F 93% 29.84 in 10.0 mi South 3.5 mph - N/A   Clear
3:15 AM 70.9 °F - 68.9 °F 93% 29.83 in 7.0 mi SW 3.5 mph - N/A   Clear
3:35 AM 70.2 °F - 68.5 °F 95% 29.83 in 7.0 mi SSW 3.5 mph - N/A   Clear
3:55 AM 69.8 °F - 68.4 °F 95% 29.83 in 5.0 mi SW 4.6 mph - N/A   Clear
4:15 AM 70.2 °F - 68.9 °F 96% 29.83 in 7.0 mi SW 3.5 mph - N/A   Clear
4:35 AM 70.3 °F - 68.7 °F 95% 29.83 in 7.0 mi SW 3.5 mph - N/A   Clear
4:55 AM 70.0 °F - 68.4 °F 95% 29.84 in 5.0 mi SW 3.5 mph - N/A   Clear
5:15 AM 69.6 °F - 68.2 °F 95% 29.84 in 5.0 mi WSW 4.6 mph - N/A   Clear
5:35 AM 69.4 °F - 68.2 °F 96% 29.84 in 4.0 mi WSW 3.5 mph - N/A   Clear
5:55 AM 69.4 °F - 68.2 °F 96% 29.84 in 3.0 mi WSW 4.6 mph - N/A   Clear
6:15 AM 69.8 °F - 68.5 °F 96% 29.84 in 4.0 mi West 4.6 mph - N/A   Clear
6:35 AM 69.8 °F - 68.7 °F 96% 29.84 in 2.5 mi West 3.5 mph - N/A   Clear
6:55 AM 69.8 °F - 68.5 °F 96% 29.84 in 2.0 mi WSW 3.5 mph - N/A   Clear
7:15 AM 70.3 °F - 69.4 °F 97% 29.84 in 2.5 mi West 4.6 mph - N/A   Clear
7:35 AM 71.6 °F - 70.2 °F 95% 29.84 in 4.0 mi West 4.6 mph - N/A   Clear
7:55 AM 72.7 °F - 70.7 °F 93% 29.85 in 7.0 mi West 5.8 mph - N/A   Clear
8:15 AM 74.3 °F - 70.7 °F 88% 29.85 in 10.0 mi West 5.8 mph - N/A   Clear
8:35 AM 75.6 °F - 70.5 °F 84% 29.86 in 10.0 mi West 8.1 mph - N/A   Clear
8:55 AM 77.0 °F - 70.0 °F 79% 29.86 in 10.0 mi WSW 6.9 mph - N/A   Clear
9:15 AM 78.6 °F - 69.6 °F 74% 29.87 in 10.0 mi West 11.5 mph - N/A   Clear
9:35 AM 79.7 °F - 68.9 °F 69% 29.87 in 10.0 mi West 10.4 mph - N/A   Clear
9:55 AM 81.0 °F 84.1 °F 69.1 °F 67% 29.87 in 10.0 mi WSW 8.1 mph - N/A   Clear
10:15 AM 82.0 °F 85.5 °F 69.1 °F 65% 29.87 in 10.0 mi West 8.1 mph - N/A   Clear
10:35 AM 82.9 °F 86.3 °F 68.7 °F 62% 29.87 in 10.0 mi West 8.1 mph - N/A   Clear
10:55 AM 83.8 °F 87.8 °F 69.6 °F 62% 29.86 in 10.0 mi West 8.1 mph - N/A   Clear
11:15 AM 84.7 °F 88.5 °F 69.1 °F 59% 29.86 in 10.0 mi West 8.1 mph - N/A   Clear
11:35 AM 85.6 °F 90.1 °F 69.6 °F 59% 29.87 in 10.0 mi WNW 6.9 mph - N/A   Clear
11:55 AM 85.8 °F 89.4 °F 68.5 °F 56% 29.86 in 10.0 mi WNW 8.1 mph - N/A   Clear
12:15 PM 86.4 °F 90.7 °F 69.6 °F 57% 29.86 in 10.0 mi NW 4.6 mph - N/A   Clear
12:35 PM 87.3 °F 89.5 °F 65.8 °F 49% 29.86 in 10.0 mi NW 3.5 mph - N/A   Clear
12:55 PM 87.4 °F 90.5 °F 67.5 °F 51% 29.85 in 10.0 mi WSW 6.9 mph - N/A   Clear
1:15 PM 87.6 °F 90.1 °F 66.2 °F 49% 29.85 in 10.0 mi Calm Calm - N/A   Clear
1:35 PM 88.3 °F 92.0 °F 68.0 °F 51% 29.85 in 10.0 mi WSW 5.8 mph - N/A   Scattered Clouds
1:55 PM 88.5 °F 91.9 °F 67.5 °F 50% 29.85 in 10.0 mi WSW 3.5 mph - N/A   Scattered Clouds
2:15 PM 87.8 °F 91.1 °F 67.8 °F 51% 29.84 in 10.0 mi Calm Calm - N/A   Mostly Cloudy
2:30 PM 88.3 °F 92.8 °F 69.3 °F 53% 29.84 in 10.0 mi WSW 4.6 mph - N/A   Mostly Cloudy
3:10 PM 87.8 °F 91.4 °F 68.0 °F 52% 29.82 in 10.0 mi SSE 3.5 mph - N/A   Mostly Cloudy
4:55 PM 87.8 °F 90.7 °F 67.1 °F 50% 29.79 in 10.0 mi Calm Calm - N/A   Overcast
5:35 PM 90.0 °F 93.2 °F 67.5 °F 47% 29.78 in 10.0 mi SW 3.5 mph - N/A   Overcast
5:55 PM 90.1 °F 94.4 °F 68.4 °F 49% 29.78 in 10.0 mi SE 8.1 mph - N/A   Mostly Cloudy
6:15 PM 87.6 °F 91.1 °F 68.2 °F 52% 29.78 in 10.0 mi South 9.2 mph - N/A   Mostly Cloudy
6:35 PM 86.2 °F 89.4 °F 68.0 °F 54% 29.78 in 10.0 mi South 8.1 mph - N/A   Mostly Cloudy
6:55 PM 86.4 °F 90.7 °F 69.6 °F 57% 29.78 in 10.0 mi SSE 9.2 mph - N/A   Scattered Clouds
7:15 PM 86.0 °F 90.1 °F 69.1 °F 57% 29.78 in 10.0 mi SSE 6.9 mph - N/A   Clear
7:35 PM 84.9 °F 88.8 °F 68.9 °F 59% 29.78 in 10.0 mi SSE 8.1 mph - N/A   Clear
7:55 PM 82.9 °F 86.3 °F 68.9 °F 62% 29.78 in 10.0 mi South 5.8 mph - N/A   Clear
8:15 PM 81.5 °F 84.6 °F 68.9 °F 65% 29.79 in 10.0 mi South 6.9 mph - N/A   Clear
8:35 PM 80.2 °F 83.0 °F 68.2 °F 67% 29.79 in 10.0 mi South 4.6 mph - N/A   Clear
8:55 PM 78.6 °F - 68.7 °F 72% 29.79 in 10.0 mi South 5.8 mph - N/A   Scattered Clouds
9:15 PM 78.4 °F - 68.9 °F 72% 29.80 in 10.0 mi SSE 3.5 mph - N/A   Mostly Cloudy
9:35 PM 78.6 °F - 69.4 °F 73% 29.81 in 10.0 mi South 5.8 mph - N/A   Light Drizzle
9:55 PM 77.9 °F - 69.8 °F 76% 29.82 in 10.0 mi South 5.8 mph - N/A   Clear
10:15 PM 77.4 °F - 70.3 °F 79% 29.82 in 10.0 mi South 5.8 mph - N/A   Clear
10:35 PM 76.8 °F - 70.7 °F 81% 29.82 in 10.0 mi South 5.8 mph - N/A   Mostly Cloudy
10:55 PM 75.9 °F - 71.1 °F 85% 29.83 in 10.0 mi South 5.8 mph - N/A   Scattered Clouds
11:15 PM 75.6 °F - 71.6 °F 87% 29.84 in 10.0 mi South 5.8 mph - N/A   Clear
11:35 PM 75.2 °F - 71.6 °F 89% 29.85 in 10.0 mi South 4.6 mph - N/A   Clear
11:55 PM 74.8 °F - 71.8 °F 90% 29.85 in 10.0 mi South 5.8 mph - N/A   Clear